Torna al catalogo

METEOR 2-7 DEB

AttivoPO
NORAD 38288·DEBRIS·🇷🇺 Russia

Lanciato May 14, 1981 da Plesetsk Cosmodrome

Loading…

Prossimi Passaggi (prossime 24 ore)

TLE

In scadenzaSource: Space-Track

Epoca: Sep 5, 2026, 08:51 UTC

1 38288U 81043W   26248.36942139  .00003058  00000-0  83630-3 0  9993
2 38288  81.2510 269.1230 0032029 318.6570  41.2196 14.46759919512542

Traccia METEOR 2-7 DEB in tempo reale con AllMySat

Download on the App Store